[[{"header":{"parameterUnit":"m.s-1","parameterCategory":1,"la1":30.2991,"la2":30.254,"lo1":-89.0895,"lo2":-89.0444,"dy":0.0017,"dx":0.0017,"nx":28,"ny":28,"refTime":"2024-10-21T03:00:00:Z","depth":0,"parameterNumber":2,"parameterNumberName":"U-component_of_WINDS"},"data":[0,0,0,0,0,0,0,0,0,0,0,0,0,0,0,0,0,0,0,0,0,0,0,0,0,0,0,0,0,0,0,0,0,0,0,0,0,0,0,0,0,0,0,0,0,0,0,0,0,0,0,0,0,0,0,0,0,0,-2.611,-2.6111,0,-2.6154,-2.6154,-2.6155,-2.6053,-2.605,-2.6047,-2.6044,-2.6089,-2.6093,-2.6097,0,0,0,0,0,0,0,0,0,0,0,0,0,-2.5941,-2.5944,-2.611,-2.6111,-2.6112,-2.6154,-2.6154,-2.6155,-2.6054,-2.605,-2.6046,-2.6042,-2.6088,-2.6093,-2.6098,0,0,0,0,0,0,0,0,0,0,0,0,0,-2.6002,-2.5945,-2.611,-2.6066,-2.6063,-2.6153,-2.6154,-2.6155,-2.6055,-2.605,-2.6045,-2.6041,-2.6086,-2.6092,-2.6098,-2.6234,0,0,-2.6118,-2.612,0,0,0,0,0,0,0,0,-2.5999,-2.6009,-2.6072,-2.6069,-2.6066,-2.6093,-2.6111,-2.6182,-2.6056,-2.6058,-2.6044,-2.6038,-2.6094,-2.61,-2.6118,-2.6236,-2.6238,-2.6118,-2.6122,-2.6125,-2.6127,0,0,0,0,0,0,0,-2.5995,-2.6006,-2.6127,-2.6073,-2.6069,-2.6044,-2.6048,-2.6124,-2.6103,-2.6057,-2.605,-2.6057,-2.6092,-2.6113,-2.6119,-2.6239,-2.6118,-2.6124,-2.6128,-2.613,-2.647,-2.6475,0,0,0,0,0,0,-2.5996,-2.6003,-2.6126,-2.6129,-2.602,-2.6051,-2.6055,-2.6089,-2.6102,-2.6099,-2.6061,-2.6052,-2.6104,-2.6112,-2.612,-2.628,-2.6125,-2.6131,-2.6134,-2.6465,-2.6471,-2.6477,0,0,0,0,0,0,-2.5993,-2.6008,-2.6124,-2.6064,-2.6077,-2.6059,-2.6099,-2.6093,-2.6113,-2.6104,-2.61,-2.6086,-2.6101,-2.6111,-2.6206,-2.628,-2.6134,-2.6139,-2.6458,-2.6467,-2.6474,-2.6602,0,0,0,0,0,0,-2.5988,-2.6007,-2.6059,-2.6066,-2.6081,-2.6211,-2.6103,-2.6097,-2.6125,-2.6113,-2.6127,-2.6124,-2.6098,-2.6198,-2.6213,-2.6286,-2.6144,-2.6452,-2.6462,-2.6471,-2.6591,-2.6613,-2.6632,0,0,0,0,0,-2.5983,-2.6094,-2.6062,-2.6078,-2.6145,-2.6215,-2.6223,-2.619,-2.6131,-2.6183,-2.6176,-2.6124,-2.6269,-2.6208,-2.6224,-2.6301,-2.6447,-2.6459,-2.6471,-2.6582,-2.6609,-2.6632,0,0,0,0,0,0,-2.6097,-2.6094,-2.6059,-2.6175,-2.6196,-2.6198,-2.6262,-2.622,-2.6258,-2.6246,-2.6203,-2.6207,-2.6311,-2.6315,-2.6247,-2.6433,-2.6348,-2.6364,-2.6427,-2.6453,-2.6473,-2.6471,-2.6149,0,0,0,0,0,-2.6135,-2.6192,-2.6187,-2.629,-2.6302,-2.6281,-2.631,-2.6282,-2.6302,-2.6311,-2.6312,-2.6333,-2.6383,-2.6418,-2.6463,-2.659,-2.6592,-2.6651,-2.6671,-2.6688,-2.6703,-2.677,-2.6797,-2.6515,-2.6515,-2.6515,0,0,-2.6216,-2.6221,-2.626,-2.6313,-2.6326,-2.6386,-2.6289,-2.6357,-2.6402,-2.6321,-2.6412,-2.6413,-2.6434,-2.6546,-2.6595,-2.6552,-2.678,-2.6703,-2.6717,-2.6722,-2.6785,-2.6812,-2.6836,-2.6523,-2.6522,-2.6521,0,0,-2.6394,-2.6403,-2.6491,-2.6505,-2.6526,-2.651,-2.6531,-2.6539,-2.6537,-2.6626,-2.6568,-2.6619,-2.6707,-2.6725,-2.6745,-2.6928,-2.6882,-2.6944,-2.7052,-2.7119,-2.7141,-2.716,-2.7227,-2.7251,-2.6958,-2.6958,-2.6959,0,-2.6492,-2.6581,-2.6541,-2.6613,-2.6639,-2.6567,-2.6656,-2.6672,-2.6706,-2.6725,-2.6677,-2.6785,-2.6794,-2.6909,-2.6954,-2.6972,-2.6995,-2.6944,-2.7141,-2.716,-2.7177,-2.724,-2.7265,-2.6966,-2.6965,-2.6964,-2.6964,0,-2.67,-2.6763,-2.6831,-2.6866,-2.6898,-2.6978,-2.6951,-2.6988,-2.6957,-2.6947,-2.7039,-2.7047,-2.7093,-2.7118,-2.7089,-2.7229,-2.7202,-2.7148,-2.7062,-2.7213,-2.7271,-2.7295,-2.6977,-2.6974,-2.6972,-2.697,0,0,-2.6954,-2.6965,-2.6991,-2.7006,-2.7022,-2.707,-2.7146,-2.7191,-2.7224,-2.725,-2.7313,-2.7388,-2.7338,-2.7361,-2.7332,-2.739,-2.7536,-2.7329,-2.7328,-2.7368,-2.7692,-2.7735,-2.7763,-2.7504,-2.7508,-2.7512,-2.7691,0,-2.7132,-2.7263,-2.7229,-2.736,-2.7417,-2.7349,-2.7416,-2.7433,-2.7425,-2.7472,-2.7463,-2.7517,-2.7446,-2.746,-2.7514,-2.7507,-2.7601,-2.7493,-2.7564,-2.7567,-2.7563,-2.7793,-2.7839,-2.8007,-2.7713,-2.7717,-2.772,0,-2.7357,-2.7391,-2.7528,-2.7534,-2.7557,-2.7617,-2.7655,-2.7701,-2.7719,-2.7709,-2.7734,-2.7694,-2.7769,-2.7681,-2.7784,-2.7712,-2.7738,-2.7739,-2.7744,-2.7752,-2.7654,-2.7809,-2.806,-2.8086,-2.7755,-2.7752,-2.775,0,-2.753,-2.761,-2.7702,-2.7717,-2.7726,-2.777,-2.7776,-2.7789,-2.7818,-2.7851,-2.7869,-2.7911,-2.7934,-2.7967,-2.7938,-2.7877,-2.8047,-2.7956,-2.8041,-2.8042,-2.8082,-2.8081,-2.8344,-2.8096,-2.8095,-2.8095,-2.8094,0,-2.7733,-2.782,-2.778,-2.7837,-2.7932,-2.7891,-2.7986,-2.7984,-2.7996,-2.8052,-2.7994,-2.8048,-2.8006,-2.8055,-2.8033,-2.8123,-2.8133,-2.8128,-2.8121,-2.8134,-2.8135,-2.8153,-2.8141,-2.8102,-2.81,-2.8099,-2.8098,0,-2.7945,-2.7921,-2.8017,-2.8018,-2.802,-2.809,-2.809,-2.8143,-2.813,-2.8201,-2.8215,-2.8195,-2.825,-2.8224,-2.8282,-2.8266,-2.8382,-2.8359,-2.8377,-2.8371,-2.8459,-2.8452,-2.8744,-2.8781,-2.8508,-2.851,-2.8513,0,-2.8077,-2.8142,-2.8149,-2.8182,-2.8192,-2.8246,-2.8275,-2.8236,-2.8269,-2.8293,-2.8343,-2.8393,-2.8431,-2.8522,-2.8513,-2.8557,-2.8535,-2.8634,-2.8542,-2.8553,-2.8539,-2.8536,-2.8543,-2.8654,-2.8657,-2.866,-2.8662,0,-2.8315,-2.83,-2.8344,-2.8384,-2.842,-2.845,-2.8474,-2.8504,-2.8466,-2.8506,-2.8561,-2.8591,-2.8649,-2.87,-2.8738,-2.8743,-2.8698,-2.8691,-2.8713,-2.8728,-2.8737,-2.8735,-2.843,-2.8685,-2.8683,-2.8681,-2.868,-2.8679,-2.8492,-2.8547,-2.856,-2.8611,-2.8625,-2.865,-2.8699,-2.8692,-2.8737,-2.8782,-2.8755,-2.8821,-2.8836,-2.8882,-2.8894,-2.8944,-2.8905,-2.8937,-2.8945,-2.8955,-2.8967,-2.8727,-2.895,-2.895,-2.8949,-2.8948,-2.8948,0,-2.8729,-2.8733,-2.878,-2.8817,-2.8856,-2.8807,-2.8832,-2.8869,-2.8927,-2.8944,-2.8983,-2.9047,-2.9095,-2.9088,-2.9133,-2.9174,-2.9154,-2.9187,-2.9185,-2.9187,-2.8999,-2.8976,-2.9203,-2.9203,-2.9203,-2.9203,-2.9203,-2.9203,-2.8857,-2.8947,-2.8933,-2.903,-2.9033,-2.9097,-2.9115,-2.9137,-2.9151,-2.9225,-2.9264,-2.9259,-2.9267,-2.9311,-2.9354,-2.935,-2.937,-2.9412,-2.9401,-2.9226,-2.9201,-2.9177,-2.9155,-2.9416,-2.9416,-2.9585,-2.9587,-2.9588]},{"header":{"parameterUnit":"m.s-1","parameterCategory":1,"la1":30.2991,"la2":30.254,"lo1":-89.0895,"lo2":-89.0444,"dy":0.0017,"dx":0.0017,"nx":28,"ny":28,"refTime":"2024-10-21T03:00:00:Z","depth":0,"parameterNumber":3,"parameterNumberName":"V-component_of_WINDS"},"data":[0,0,0,0,0,0,0,0,0,0,0,0,0,0,0,0,0,0,0,0,0,0,0,0,0,0,0,0,0,0,0,0,0,0,0,0,0,0,0,0,0,0,0,0,0,0,0,0,0,0,0,0,0,0,0,0,0,0,-4.0857,-4.0857,0,-4.0871,-4.0871,-4.0872,-4.0801,-4.0799,-4.0797,-4.0795,-4.0809,-4.0811,-4.0813,0,0,0,0,0,0,0,0,0,0,0,0,0,-4.0767,-4.0769,-4.0857,-4.0857,-4.0857,-4.0871,-4.0871,-4.0872,-4.0801,-4.0799,-4.0796,-4.0794,-4.0808,-4.0811,-4.0813,0,0,0,0,0,0,0,0,0,0,0,0,0,-4.0796,-4.077,-4.0857,-4.0824,-4.0821,-4.0871,-4.0871,-4.0872,-4.0802,-4.0799,-4.0796,-4.0793,-4.0807,-4.081,-4.0814,-4.0896,0,0,-4.0824,-4.0825,0,0,0,0,0,0,0,0,-4.0795,-4.0799,-4.0829,-4.0826,-4.0823,-4.0831,-4.0844,-4.088,-4.0803,-4.0809,-4.0795,-4.0791,-4.0819,-4.0821,-4.083,-4.0896,-4.0897,-4.0824,-4.0826,-4.0828,-4.0829,0,0,0,0,0,0,0,-4.0793,-4.0798,-4.0863,-4.0829,-4.0826,-4.0808,-4.0809,-4.0851,-4.0831,-4.0808,-4.0803,-4.0806,-4.0816,-4.0827,-4.083,-4.0897,-4.0824,-4.0827,-4.0829,-4.0831,-4.1029,-4.1032,0,0,0,0,0,0,-4.0795,-4.0797,-4.0862,-4.0863,-4.0801,-4.0812,-4.0813,-4.0832,-4.083,-4.0827,-4.0809,-4.0803,-4.0823,-4.0826,-4.083,-4.0924,-4.0828,-4.0831,-4.0833,-4.1025,-4.1029,-4.1033,0,0,0,0,0,0,-4.0794,-4.0802,-4.0862,-4.0829,-4.0835,-4.0817,-4.0839,-4.0834,-4.0844,-4.083,-4.0826,-4.0823,-4.082,-4.0825,-4.0879,-4.0924,-4.0832,-4.0836,-4.1022,-4.1027,-4.1031,-4.1115,0,0,0,0,0,0,-4.0791,-4.0801,-4.0833,-4.083,-4.0837,-4.0912,-4.0841,-4.0836,-4.085,-4.0843,-4.0843,-4.084,-4.0818,-4.0875,-4.0883,-4.0927,-4.0838,-4.1017,-4.1024,-4.103,-4.1108,-4.1122,-4.1134,0,0,0,0,0,-4.0788,-4.0856,-4.0835,-4.0843,-4.0876,-4.0914,-4.0918,-4.0892,-4.0854,-4.0885,-4.0876,-4.084,-4.0918,-4.0881,-4.0889,-4.0935,-4.1015,-4.1022,-4.1029,-4.1102,-4.1119,-4.1133,0,0,0,0,0,0,-4.0865,-4.0855,-4.0832,-4.0901,-4.0909,-4.0902,-4.0941,-4.0911,-4.093,-4.0922,-4.0889,-4.089,-4.0949,-4.0947,-4.0906,-4.1013,-4.0959,-4.0969,-4.1012,-4.1028,-4.1041,-4.1039,-4.0841,0,0,0,0,0,-4.089,-4.0923,-4.0912,-4.0974,-4.0979,-4.096,-4.0975,-4.0954,-4.0961,-4.0964,-4.0959,-4.0967,-4.0992,-4.101,-4.1033,-4.1107,-4.1105,-4.1143,-4.1156,-4.1166,-4.1175,-4.1212,-4.1228,-4.1057,-4.1057,-4.1056,0,0,-4.0943,-4.0941,-4.0963,-4.0989,-4.0993,-4.1026,-4.0963,-4.1001,-4.1025,-4.097,-4.102,-4.1017,-4.1023,-4.1087,-4.1114,-4.1087,-4.1222,-4.1176,-4.1184,-4.1187,-4.1221,-4.1237,-4.1252,-4.1062,-4.1061,-4.106,0,0,-4.1054,-4.1057,-4.1108,-4.1113,-4.1119,-4.1105,-4.1117,-4.1115,-4.111,-4.116,-4.1119,-4.1147,-4.1193,-4.1198,-4.1207,-4.1319,-4.1286,-4.1328,-4.1395,-4.1432,-4.1445,-4.1457,-4.1495,-4.151,-4.1336,-4.1336,-4.1336,0,-4.1118,-4.1167,-4.1138,-4.1178,-4.119,-4.1142,-4.1192,-4.1198,-4.1212,-4.1221,-4.119,-4.1246,-4.1246,-4.131,-4.1337,-4.1347,-4.1358,-4.1327,-4.1446,-4.1457,-4.1468,-4.1504,-4.1519,-4.1341,-4.1341,-4.134,-4.134,0,-4.1244,-4.1278,-4.1319,-4.1332,-4.1349,-4.1395,-4.1372,-4.1392,-4.1369,-4.1358,-4.1409,-4.1408,-4.143,-4.1443,-4.1422,-4.1504,-4.1486,-4.1451,-4.1396,-4.1489,-4.1523,-4.1537,-4.1348,-4.1346,-4.1345,-4.1344,0,0,-4.1405,-4.1401,-4.1416,-4.1421,-4.1424,-4.145,-4.1492,-4.1513,-4.153,-4.1541,-4.1575,-4.1614,-4.1581,-4.1591,-4.157,-4.1603,-4.1689,-4.1563,-4.1563,-4.1585,-4.1777,-4.1803,-4.182,-4.1668,-4.167,-4.1672,-4.1776,0,-4.1513,-4.1586,-4.156,-4.1634,-4.1664,-4.1618,-4.1654,-4.166,-4.1651,-4.1674,-4.1664,-4.1692,-4.1647,-4.1652,-4.1682,-4.1673,-4.1727,-4.1665,-4.1698,-4.17,-4.1697,-4.1837,-4.1865,-4.1963,-4.1789,-4.1792,-4.1793,0,-4.1649,-4.1664,-4.1741,-4.1737,-4.1748,-4.1782,-4.1798,-4.1822,-4.1826,-4.1817,-4.1828,-4.1799,-4.184,-4.1785,-4.184,-4.1798,-4.181,-4.1807,-4.181,-4.1811,-4.1751,-4.1841,-4.1994,-4.2008,-4.1814,-4.1812,-4.1811,0,-4.1757,-4.1797,-4.1847,-4.1853,-4.185,-4.1874,-4.1874,-4.1875,-4.1889,-4.1903,-4.1911,-4.193,-4.194,-4.1955,-4.1931,-4.1894,-4.1989,-4.1933,-4.1981,-4.1982,-4.2003,-4.2001,-4.2158,-4.2013,-4.2012,-4.2012,-4.2012,0,-4.1879,-4.1928,-4.1895,-4.1926,-4.1979,-4.1948,-4.2001,-4.1995,-4.1997,-4.2025,-4.1987,-4.2014,-4.1982,-4.2006,-4.1989,-4.2035,-4.2041,-4.2034,-4.2028,-4.2037,-4.2037,-4.2043,-4.2035,-4.2016,-4.2015,-4.2014,-4.2014,0,-4.2008,-4.1989,-4.2041,-4.2033,-4.2032,-4.2071,-4.2063,-4.2091,-4.2079,-4.2115,-4.2122,-4.2103,-4.2129,-4.2107,-4.2133,-4.2121,-4.2183,-4.2169,-4.2182,-4.2177,-4.2226,-4.2221,-4.2391,-4.2411,-4.2254,-4.2256,-4.2257,0,-4.2087,-4.2123,-4.2119,-4.2135,-4.2137,-4.2164,-4.2177,-4.2148,-4.2164,-4.217,-4.2197,-4.222,-4.2237,-4.2281,-4.2269,-4.2288,-4.2273,-4.2331,-4.2276,-4.2282,-4.2272,-4.227,-4.2272,-4.2342,-4.2344,-4.2345,-4.2347,0,-4.2229,-4.2217,-4.2238,-4.2255,-4.2272,-4.2284,-4.2293,-4.2308,-4.2279,-4.2298,-4.2324,-4.2337,-4.2363,-4.2386,-4.2401,-4.2399,-4.2368,-4.2364,-4.2376,-4.2385,-4.239,-4.2386,-4.2211,-4.236,-4.2359,-4.2358,-4.2357,-4.2357,-4.2335,-4.2364,-4.2365,-4.2388,-4.2392,-4.2401,-4.2426,-4.2416,-4.2438,-4.2456,-4.2438,-4.2469,-4.2471,-4.2488,-4.2491,-4.2514,-4.249,-4.2508,-4.2512,-4.2516,-4.2523,-4.2387,-4.2517,-4.2517,-4.2516,-4.2516,-4.2516,0,-4.2473,-4.2471,-4.2493,-4.2506,-4.2525,-4.2493,-4.2501,-4.2519,-4.2547,-4.2551,-4.2568,-4.2597,-4.2619,-4.2608,-4.2627,-4.2648,-4.2634,-4.2654,-4.2651,-4.2651,-4.2544,-4.2531,-4.2665,-4.2665,-4.2665,-4.2665,-4.2665,-4.2665,-4.2547,-4.2594,-4.2582,-4.263,-4.2627,-4.2657,-4.2664,-4.2672,-4.2675,-4.2709,-4.2727,-4.2719,-4.2717,-4.2735,-4.2754,-4.275,-4.2758,-4.2783,-4.2774,-4.2674,-4.2659,-4.2645,-4.2633,-4.2785,-4.2785,-4.2879,-4.2879,-4.288]}]]